Hourly Data Report for June 17, 2021

BORDEN AWOS
ONTARIO
Current Station Operator: DND

44°16'20.000" N
79°54'42.000" W
222.50 m
611B002
71534
YBN

Download Data

Hourly Data (June 2021)
Hourly Data Report for June 17, 2021
TIME
LST
Temp Definition
°C
Dew Point Definition
°C
Rel Hum Definition
%
Precip. Amount Definition
mm

Wind Dir Definition
10's deg

Wind Spd Definition
km/h
Visibility Definition
km
Stn Press Definition
kPa
Hmdx Definition


Wind Chill Definition


Weather Definition


00:00 3.8 0.2 77     0 14.5 98.99     LegendNANA
01:00 3.3 0.7 83   18 4 14.5 98.97     LegendNANA
02:00 3.6 0.9 83   20 6 14.5 98.95     LegendNANA
03:00 3.0 1.4 89     0 14.5 98.95     LegendNANA
04:00 3.0 0.8 85   19 4 14.5 98.93     LegendNANA
05:00 3.0 0.7 85     0 14.5 98.99     LegendNANA
06:00 8.9 4.0 71     0 14.5 98.98     LegendNANA
07:00 14.2 4.3 51     0 14.5 99.02     LegendNANA
08:00 17.5 5.3 45     0 14.5 99.02     LegendNANA
09:00 20.9 5.3 36   31 11 14.5 99.00     LegendNANA
10:00 23.0 3.3 28   28 13 14.5 98.99     LegendNANA
11:00 23.8 2.9 26   21 13 14.5 98.96     LegendNANA
12:00 23.7 3.0 26   18 13 14.5 98.91     LegendNANA
13:00 25.6 3.8 24   24 20 14.5 98.90     LegendNANA
14:00 26.6 3.6 23   24 20 14.5 98.84 25   LegendNANA
15:00 26.1 3.7 24   23 15 14.5 98.78 25   LegendNANA
16:00 26.9 3.8 23   27 20 14.5 98.71 26   LegendNANA
17:00 26.6 3.7 23   26 17 14.5 98.66 25   LegendNANA
18:00 26.5 6.2 27   22 17 14.5 98.60 26   LegendNANA
19:00 24.9 5.3 28   25 13 14.5 98.60     LegendNANA
20:00 20.6 5.4 37   20 4 14.5 98.60     LegendNANA
21:00 16.5 5.9 50   16 7 14.5 98.57     LegendNANA
22:00 16.8 6.4 50   19 7 14.5 98.60     LegendNANA
23:00 15.5 8.1 61   18 9 14.5 98.60     LegendNANA

Notes on Data Quality.

Legend

  • E = Estimated
  • M = Missing
  • NA = Not Available*
  • [empty] = Indicates an unobserved value
Date modified: